Wind_Speed
7 7 7 6 5 5 5 5 5 5 5 5 5 5 4 4 3 3 3 3 3 4 3 3 3 2 3 3 3 3 3 3 4 4 4 4 5 5 4 4 4 4 4
6 6 6 6 6 5 5 5 5 5 5 5 6 6 5 4 4 4 4 3 2 3 4 4 4 3 3 3 3 3 3 4 4 5 5 5 5 5 4 4 4 5 5
6 6 6 6 6 5 5 5 5 5 5 6 6 6 5 5 4 4 5 4 2 3 4 4 4 4 4 3 3 3 4 4 4 4 5 5 6 5 5 4 4 5 5
7 7 6 6 6 5 5 5 5 5 6 6 6 5 6 5 5 5 5 5 4 3 4 4 4 4 4 4 3 3 4 4 5 5 5 6 6 5 5 5 5 5 5
7 7 7 6 6 5 5 5 5 6 6 6 6 5 6 5 6 6 6 6 5 4 4 5 5 5 5 5 5 4 4 4 5 5 5 6 6 5 5 5 6 6 5
8 7 7 7 7 6 6 6 6 6 7 7 7 7 7 6 7 6 6 7 6 5 5 5 6 6 6 6 5 5 5 5 5 5 5 6 6 6 5 5 5 6 6
8 8 8 7 7 7 7 7 7 7 7 7 7 7 7 7 7 7 7 7 7 6 6 6 6 7 7 7 6 5 5 4 4 4 5 5 5 6 5 4 6 7 6
7 7 7 8 7 7 7 7 8 8 8 8 8 8 8 8 8 7 8 8 8 7 7 6 6 6 7 7 6 5 5 4 4 4 4 4 4 5 5 4 5 7 6
8 7 8 8 8 7 7 8 8 8 8 8 8 8 8 8 8 8 8 8 8 8 8 7 7 7 7 7 7 7 6 5 4 4 4 4 3 4 5 5 5 7 6
8 8 8 8 8 7 8 8 8 8 9 9 8 8 8 8 8 9 10 9 9 8 9 8 8 8 8 8 8 8 7 7 5 5 4 4 3 4 5 4 5 6 7
9 8 8 8 7 8 8 8 8 8 9 9 9 9 8 9 9 10 10 10 9 9 9 8 9 10 10 9 9 9 8 7 6 5 5 4 4 4 5 5 5 6 8
9 9 8 8 8 8 8 8 9 9 9 9 9 9 8 9 10 10 10 10 9 9 9 9 10 10 10 10 10 10 9 8 8 7 6 5 5 5 6 5 5 5 6
10 9 8 8 9 9 9 9 9 10 10 10 9 10 9 9 10 10 10 10 10 9 9 9 9 9 9 9 10 11 10 9 8 7 7 6 6 6 6 6 6 6 6
10 10 10 10 10 10 10 10 10 10 9 9 9 10 10 10 10 10 10 10 10 10 9 9 10 10 10 10 11 12 11 11 9 8 8 7 7 7 7 7 7 7 6
9 10 11 11 10 10 10 11 11 11 10 10 9 10 10 11 11 10 10 10 10 9 9 10 10 11 11 11 11 12 11 11 10 9 8 9 8 8 8 8 7 6 7
10 10 12 12 11 11 11 11 11 12 11 10 10 10 10 11 11 11 11 10 10 10 10 10 10 10 11 11 11 11 11 11 11 11 10 10 9 9 9 9 8 7 7
12 12 13 13 13 13 12 12 12 12 11 10 10 10 11 11 11 11 11 10 10 11 10 10 10 10 10 10 11 11 11 11 11 11 11 11 11 10 10 10 10 9 9
13 13 14 14 14 14 13 13 12 11 11 10 10 11 11 11 10 10 10 10 10 11 11 11 10 9 10 11 11 11 12 12 12 12 12 12 12 12 11 11 11 10 10
13 13 14 14 14 14 13 13 12 11 11 11 11 11 11 10 10 9 9 10 10 10 11 11 12 11 12 12 12 12 12 12 12 12 13 13 13 13 12 11 12 11 11
13 13 13 14 14 14 13 13 12 11 11 11 11 11 11 10 10 9 9 9 10 10 11 11 12 12 12 12 13 12 12 12 13 13 13 14 14 14 15 14 13 13 12
14 14 14 14 14 14 14 13 12 11 11 11 11 12 11 10 10 10 10 10 10 10 11 11 12 12 12 13 13 13 12 12 13 14 14 15 15 15 16 15 14 14 13
16 15 15 15 15 15 14 13 12 11 11 11 11 11 11 10 10 11 10 10 11 10 11 10 11 12 12 12 12 13 13 13 13 14 15 15 16 16 16 16 15 15 15
16 16 15 16 15 15 13 12 11 11 11 11 10 10 10 10 10 10 10 10 11 11 10 10 10 11 12 12 12 13 13 13 13 14 15 16 16 17 17 16 16 16 16
16 16 16 16 15 14 13 11 11 10 10 10 9 9 10 10 10 10 10 10 11 11 10 10 10 10 11 12 12 13 14 14 14 14 15 16 17 17 17 16 16 16 16
16 16 16 16 15 14 12 11 10 9 9 8 9 9 9 9 10 9 10 10 11 11 10 10 10 10 11 12 12 13 14 14 15 15 16 16 16 16 16 17 17 17 17
16 16 16 15 14 13 11 10 10 9 8 8 8 8 8 9 10 10 10 10 11 11 10 10 10 11 11 12 12 13 13 14 14 14 15 15 16 16 16 17 17 17 17
Wind_Direction
356 357 352 349 347 345 337 327 326 320 316 318 316 311 303 298 303 303 294 288 263 237 219 207 206 219 221 220 218 207 212 216 210 192 197 199 179 167 171 178 178 174 162
349 348 345 344 341 337 329 320 320 315 314 314 311 305 303 302 300 298 291 293 264 232 221 213 212 228 242 245 250 230 225 234 227 211 205 202 195 183 184 189 191 180 177
351 347 343 340 337 329 321 316 313 310 309 312 311 301 298 295 294 293 291 290 274 238 226 223 223 239 251 252 257 251 256 252 232 218 205 204 208 206 204 204 207 193 187
348 344 342 336 330 323 314 310 305 302 303 308 311 304 302 291 283 288 292 284 271 251 240 237 234 242 253 258 257 257 259 247 241 233 219 215 216 222 219 218 215 211 204
346 341 340 334 325 320 312 306 299 295 295 298 301 300 299 293 287 286 286 283 274 261 251 245 240 242 249 251 252 251 248 245 238 236 229 223 223 226 225 216 218 218 208
346 341 338 333 327 319 308 303 297 293 290 290 291 291 290 290 288 280 283 279 278 270 267 260 249 244 248 253 250 251 250 241 230 232 235 233 226 229 232 224 210 214 206
340 332 332 331 327 320 308 301 298 295 291 287 285 282 284 288 285 277 281 277 277 272 273 270 262 254 248 246 247 246 241 233 228 226 224 231 232 235 243 234 213 214 217
336 330 325 324 325 319 309 304 301 298 295 290 286 281 281 288 286 279 277 274 273 276 272 269 265 257 246 250 246 239 233 217 220 213 209 216 237 240 235 237 229 210 220
335 327 323 321 323 318 314 311 308 304 299 294 288 284 283 283 284 279 276 274 269 266 265 265 263 253 252 251 245 243 234 214 224 223 217 224 246 245 233 233 231 216 217
329 322 322 322 319 314 313 310 307 304 302 296 289 285 284 283 282 278 279 274 266 262 260 263 261 257 253 250 246 246 234 224 230 219 219 223 234 238 228 227 228 222 217
322 319 322 320 317 311 310 309 305 301 299 293 289 285 283 281 282 282 280 275 268 262 260 261 266 263 256 249 247 241 235 233 233 227 221 223 230 231 224 227 230 230 228
323 322 323 320 315 310 307 309 309 302 299 294 289 287 284 280 282 280 275 273 268 262 260 258 259 258 253 248 243 239 238 238 237 230 224 226 236 235 232 232 235 238 226
326 324 320 319 313 309 308 309 309 305 298 292 289 289 285 281 281 277 270 272 266 264 263 258 253 254 251 244 244 243 242 241 234 229 229 232 237 237 240 236 234 234 231
326 322 317 315 312 309 305 303 304 303 298 291 287 285 283 285 282 275 269 273 268 264 262 257 253 253 247 240 238 237 240 238 231 232 234 235 238 243 246 237 235 228 228
325 322 316 316 311 306 302 299 297 298 296 294 290 286 283 285 281 276 272 269 262 261 258 254 253 252 249 242 234 235 237 233 232 236 236 238 241 243 243 238 236 230 227
324 323 321 315 309 306 301 300 298 296 293 290 287 284 281 285 283 278 272 266 259 258 259 256 251 250 247 240 234 233 233 231 233 235 240 244 246 241 240 238 237 237 235
322 320 319 317 310 307 305 302 299 295 290 287 285 283 281 282 282 275 268 260 255 256 257 258 255 253 244 239 237 235 233 234 233 235 241 247 249 243 242 242 242 242 237
317 318 317 317 314 310 308 305 298 294 288 285 283 282 281 281 281 280 272 259 255 257 258 258 252 252 243 243 242 238 237 237 234 237 240 242 246 247 243 241 245 240 237
314 315 315 314 314 310 304 304 299 295 289 285 282 280 278 281 281 278 274 264 259 259 258 255 253 250 248 244 241 240 242 238 239 241 241 242 245 246 244 244 244 241 240
309 311 313 312 312 311 306 301 297 295 291 288 283 278 276 279 281 279 273 267 266 263 259 257 254 253 250 248 247 248 247 245 243 242 243 242 243 244 245 248 247 245 240
305 308 309 308 308 308 304 295 292 291 290 290 288 280 276 279 281 278 270 265 266 268 262 260 257 254 253 252 251 251 249 246 243 242 243 242 243 244 246 249 252 251 249
303 304 305 304 305 305 303 297 290 287 286 289 287 282 277 279 282 279 274 266 265 266 265 260 256 253 253 252 252 253 252 247 246 247 245 244 245 246 247 247 247 249 252
298 300 303 303 303 302 301 296 291 292 290 288 285 281 278 279 283 282 273 265 266 267 266 258 255 252 250 251 253 252 250 251 250 247 246 247 249 248 247 244 245 249 253
295 296 299 299 300 299 296 294 290 292 292 288 282 279 277 277 279 278 272 267 264 268 266 262 257 255 253 253 254 253 253 251 251 249 248 249 249 248 248 247 248 250 251
294 295 295 295 296 296 292 291 288 287 287 284 279 276 275 276 279 277 272 263 259 263 265 263 259 256 257 258 257 256 257 255 254 254 254 252 249 249 250 248 249 250 252
295 295 294 292 291 289 286 284 284 284 281 284 284 278 278 281 284 280 273 263 258 257 261 263 262 260 261 260 259 260 262 259 257 258 257 255 254 253 251 251 250 252 255
Height
5894 5893 5893 5892 5891 5891 5890 5890 5889 5889 5888 5888 5887 5887 5886 5886 5885 5884 5884 5883 5882 5881 5882 5882 5882 5882 5882 5882 5882 5882 5882 5883 5883 5883 5883 5884 5884 5883 5884 5884 5884 5885 5885
5894 5893 5893 5892 5891 5890 5890 5889 5889 5888 5888 5888 5887 5887 5886 5886 5885 5884 5883 5882 5881 5880 5881 5882 5882 5882 5882 5882 5882 5882 5882 5883 5883 5883 5883 5883 5883 5883 5884 5884 5884 5884 5885
5893 5893 5892 5891 5890 5890 5889 5889 5888 5888 5888 5887 5887 5886 5886 5885 5885 5884 5883 5882 5881 5881 5881 5882 5882 5882 5882 5882 5882 5882 5882 5882 5882 5882 5883 5883 5883 5883 5883 5884 5883 5884 5884
5893 5892 5891 5891 5890 5889 5889 5888 5888 5887 5887 5887 5886 5886 5885 5885 5884 5884 5883 5882 5882 5881 5882 5882 5882 5882 5881 5881 5881 5881 5881 5881 5881 5882 5882 5882 5882 5882 5883 5883 5883 5883 5884
5892 5892 5891 5890 5889 5888 5888 5888 5887 5887 5886 5886 5885 5885 5884 5884 5884 5883 5883 5882 5882 5881 5881 5881 5881 5881 5881 5881 5881 5881 5881 5881 5881 5881 5881 5881 5881 5881 5882 5882 5882 5883 5883
5891 5891 5890 5889 5888 5888 5887 5887 5886 5886 5885 5885 5884 5884 5883 5883 5883 5883 5882 5882 5881 5881 5881 5881 5881 5880 5880 5880 5880 5880 5880 5880 5880 5880 5881 5881 5881 5881 5881 5881 5881 5881 5882
5890 5889 5889 5888 5887 5887 5886 5886 5885 5885 5884 5884 5883 5883 5882 5882 5882 5881 5881 5881 5880 5880 5880 5880 5880 5879 5879 5878 5879 5879 5879 5879 5879 5880 5880 5880 5880 5881 5881 5880 5880 5880 5881
5889 5888 5887 5887 5886 5886 5885 5885 5884 5884 5883 5883 5882 5881 5881 5880 5880 5880 5880 5880 5879 5879 5879 5879 5879 5878 5877 5878 5878 5878 5878 5878 5879 5879 5879 5879 5879 5880 5880 5880 5878 5879 5880
5887 5887 5886 5885 5885 5884 5884 5883 5883 5882 5882 5881 5881 5880 5879 5879 5878 5878 5878 5878 5878 5878 5878 5878 5877 5877 5876 5877 5877 5877 5877 5877 5878 5878 5878 5878 5878 5879 5879 5879 5878 5878 5879
5887 5886 5885 5884 5884 5883 5882 5882 5881 5881 5880 5879 5879 5879 5878 5877 5877 5876 5876 5876 5876 5876 5876 5876 5876 5875 5875 5875 5875 5876 5876 5876 5876 5877 5877 5877 5877 5877 5878 5878 5878 5878 5878
5885 5885 5884 5883 5882 5881 5881 5880 5879 5879 5878 5877 5877 5877 5876 5876 5875 5874 5874 5874 5874 5874 5874 5874 5874 5873 5873 5874 5874 5874 5874 5875 5876 5876 5876 5876 5876 5876 5877 5877 5877 5877 5878
5884 5883 5882 5881 5880 5880 5879 5878 5877 5877 5876 5875 5875 5874 5874 5874 5873 5872 5872 5872 5872 5872 5872 5872 5871 5871 5871 5871 5872 5872 5873 5874 5874 5875 5875 5875 5875 5875 5875 5876 5876 5876 5876
5883 5882 5881 5880 5879 5878 5877 5876 5875 5875 5874 5873 5872 5872 5872 5871 5871 5870 5870 5869 5869 5870 5870 5870 5869 5869 5869 5869 5870 5871 5871 5872 5873 5873 5873 5874 5874 5874 5874 5874 5874 5875 5875
5881 5880 5879 5878 5877 5875 5874 5874 5873 5872 5871 5871 5870 5870 5869 5869 5868 5868 5868 5867 5867 5867 5867 5867 5867 5867 5867 5867 5868 5868 5869 5870 5871 5871 5872 5872 5872 5873 5873 5873 5873 5873 5874
5880 5878 5877 5876 5875 5874 5872 5871 5870 5870 5869 5868 5867 5867 5866 5866 5866 5865 5865 5865 5864 5864 5864 5864 5864 5865 5865 5865 5865 5866 5867 5868 5868 5869 5870 5870 5870 5871 5871 5872 5872 5872 5872
5878 5876 5875 5874 5872 5871 5870 5869 5868 5867 5866 5865 5865 5864 5864 5863 5863 5862 5862 5861 5861 5861 5861 5861 5861 5862 5862 5862 5863 5863 5864 5865 5866 5867 5868 5868 5868 5869 5869 5870 5870 5870 5870
5875 5874 5872 5871 5869 5868 5867 5866 5865 5864 5863 5862 5862 5861 5861 5860 5859 5859 5858 5858 5858 5858 5858 5859 5859 5859 5859 5860 5861 5861 5862 5863 5864 5865 5865 5866 5866 5866 5867 5867 5867 5868 5868
5873 5872 5870 5869 5867 5865 5864 5862 5862 5861 5860 5859 5859 5858 5858 5857 5856 5856 5855 5855 5855 5856 5856 5856 5856 5856 5857 5858 5858 5859 5860 5860 5861 5862 5862 5863 5863 5864 5864 5864 5865 5865 5865
5871 5869 5868 5866 5864 5862 5861 5859 5858 5857 5856 5856 5856 5855 5855 5854 5853 5853 5853 5853 5853 5853 5853 5853 5853 5854 5854 5855 5855 5856 5857 5857 5858 5858 5859 5860 5861 5861 5861 5862 5862 5862 5862
5869 5867 5865 5863 5861 5860 5858 5856 5855 5854 5854 5853 5852 5852 5852 5851 5850 5850 5850 5850 5850 5850 5850 5850 5850 5851 5851 5852 5852 5853 5854 5854 5854 5855 5856 5857 5857 5858 5858 5859 5859 5859 5859
5866 5864 5863 5861 5859 5858 5855 5853 5852 5852 5851 5850 5849 5848 5848 5848 5848 5847 5847 5847 5847 5847 5846 5846 5847 5847 5848 5848 5849 5849 5850 5850 5851 5851 5852 5853 5854 5854 5855 5855 5856 5856 5856
5863 5861 5860 5858 5856 5854 5852 5850 5849 5849 5848 5847 5846 5845 5845 5845 5844 5844 5844 5843 5843 5843 5843 5843 5843 5844 5844 5845 5845 5845 5846 5847 5847 5848 5849 5850 5850 5851 5851 5852 5852 5852 5853
5859 5858 5856 5854 5852 5851 5849 5847 5846 5845 5844 5843 5843 5842 5842 5842 5841 5840 5840 5840 5840 5840 5840 5840 5840 5840 5841 5841 5842 5842 5842 5843 5843 5844 5845 5845 5846 5846 5847 5848 5848 5849 5849
5856 5854 5852 5851 5849 5847 5845 5844 5843 5842 5841 5841 5840 5840 5839 5839 5838 5838 5837 5837 5837 5837 5837 5837 5837 5837 5837 5838 5838 5838 5839 5839 5840 5841 5841 5841 5842 5842 5843 5844 5845 5845 5846
5852 5850 5848 5847 5845 5843 5842 5841 5840 5839 5839 5838 5838 5837 5836 5836 5835 5835 5834 5834 5834 5834 5834 5834 5834 5834 5834 5834 5835 5835 5835 5835 5836 5836 5837 5837 5838 5838 5839 5839 5841 5841 5842
5847 5846 5845 5843 5841 5839 5838 5837 5837 5836 5836 5836 5835 5834 5834 5833 5832 5832 5831 5831 5831 5831 5831 5831 5831 5831 5831 5831 5831 5831 5831 5831 5832 5832 5833 5833 5833 5834 5835 5835 5836 5837 5837